Temp
3 3 3 3 3 4 3 2 5 6 6 5 5 5 9 12 13 14 13 15 17 19 20 19 20 19 20 21 21 19 21 19 18 19 20 20 20 19 18 15 16 16 17 17
3 3 3 3 3 4 2 3 4 5 6 4 4 7 8 12 13 13 13 14 16 17 18 18 19 19 17 20 21 20 19 17 15 17 18 18 18 19 19 18 14 15 14 16
3 3 3 3 3 4 2 1 2 4 6 6 6 7 7 8 10 12 12 13 13 13 14 15 17 13 14 16 18 13 14 17 16 16 17 17 16 17 18 18 14 15 15 17
3 3 3 3 3 4 2 2 1 3 5 4 5 8 9 8 9 11 12 12 12 12 12 12 13 13 11 12 9 13 14 13 16 17 18 17 15 17 17 17 17 14 16 16
2 3 3 3 3 3 2 0 0 2 6 5 5 7 8 9 9 11 11 12 12 12 10 12 11 9 11 11 11 12 11 9 11 12 15 16 13 15 17 17 18 18 17 16
2 3 3 3 3 3 3 2 3 4 6 5 6 6 9 9 11 11 12 13 10 9 8 6 6 7 7 9 8 8 7 7 8 9 12 13 10 12 14 17 18 17 15 16
3 3 3 3 3 3 4 3 4 4 5 6 6 9 9 10 10 10 11 9 9 5 6 5 5 3 4 6 6 7 5 6 7 8 7 8 13 14 15 15 16 16 16 15
3 3 3 3 3 3 3 3 4 4 4 7 7 8 8 9 10 6 6 5 6 5 4 2 3 3 4 3 4 6 6 5 7 7 7 11 13 11 12 13 13 15 15 15
3 3 3 3 3 3 3 3 4 5 5 5 8 7 9 7 5 1 1 3 4 4 2 3 5 5 6 5 5 6 7 6 8 6 7 8 12 14 13 13 10 14 14 12
3 3 3 3 3 2 2 3 3 4 2 2 7 6 6 3 3 2 0 2 1 1 3 5 6 6 8 6 6 5 5 5 6 6 7 9 12 12 11 8 10 12 12 10
3 3 3 3 2 1 2 2 2 3 1 0 3 4 2 2 3 2 -0 1 0 1 4 5 4 5 6 7 8 6 6 5 6 5 6 6 11 9 8 9 9 8 8 7
3 3 3 3 2 2 2 2 2 2 3 -1 0 2 3 4 4 2 0 2 2 2 4 3 3 4 5 7 6 8 5 6 6 7 8 9 10 9 8 8 8 7 7 7
3 3 3 3 3 2 2 2 3 2 -1 -1 -0 -0 1 2 2 3 1 -0 0 1 2 3 2 3 7 5 5 7 8 9 7 8 9 10 10 9 7 7 6 6 6 5
2 2 2 2 2 2 2 3 2 2 -1 1 -1 -1 -0 0 1 1 2 2 1 2 2 2 3 3 6 5 7 7 8 8 8 8 9 9 9 8 7 6 6 5 5 4
2 2 2 2 2 2 2 2 1 3 1 1 -0 -1 -0 -0 0 0 0 1 1 1 1 2 2 5 6 7 8 8 9 8 6 6 8 8 8 7 7 6 5 4 4 4
1 2 2 2 2 1 1 1 -0 0 3 1 0 -1 -0 -0 0 0 0 0 1 1 2 3 5 4 6 5 6 9 9 9 8 8 8 8 8 7 6 5 5 4 3 3
-1 -1 -1 -1 -0 0 -0 -0 -0 -0 2 1 1 0 -1 -0 0 0 0 1 2 3 4 4 5 5 5 5 6 9 9 9 8 8 8 7 7 6 5 4 4 3 2 2
-2 -1 -1 -1 -1 -1 -1 -1 -0 1 1 1 1 0 -0 0 1 2 3 3 3 4 4 5 5 4 5 4 7 8 8 7 7 7 7 6 6 5 5 4 3 2 2 2
-0 -0 -0 0 -1 -2 -1 1 2 2 1 1 2 1 0 1 2 3 3 4 3 3 4 5 5 4 3 5 6 7 7 6 6 6 6 5 5 5 4 3 3 2 2 2
2 2 2 2 2 2 2 2 1 3 4 4 4 4 2 2 3 3 3 4 3 2 4 5 4 4 6 6 6 6 6 6 5 5 5 5 4 4 4 3 3 2 2 1
2 3 2 2 3 4 3 1 3 4 4 5 4 4 4 4 3 3 4 3 4 4 4 4 4 4 5 6 6 6 5 5 5 5 4 4 4 3 3 3 3 2 1 1
2 3 3 3 4 3 2 2 4 5 4 5 4 4 3 2 3 3 3 3 4 3 5 3 3 5 6 6 6 6 5 5 5 4 4 4 3 2 2 2 2 2 1 1
3 2 2 3 2 2 3 1 4 3 4 3 2 1 1 1 1 2 2 2 3 5 3 3 5 6 6 6 6 6 5 5 4 4 4 3 2 2 2 1 1 0 0 -0
2 1 0 2 2 4 4 6 4 3 3 2 1 1 1 0 2 3 2 4 5 3 3 4 6 6 6 6 5 5 5 4 4 3 3 3 2 1 1 0 0 0 -0 -1
2 2 1 1 2 2 3 3 4 3 2 1 1 1 2 2 1 3 3 2 2 3 4 4 5 6 5 5 4 4 4 3 3 2 2 2 1 1 0 -0 -1 -1 -1 -2
1 2 2 2 1 1 2 3 3 3 2 2 3 2 1 1 2 2 2 3 3 4 4 4 5 5 5 4 4 3 3 2 1 1 1 1 0 -0 -0 -1 -1 -2 -3 -3
2 1 2 2 2 1 2 3 3 3 3 3 4 1 2 3 3 3 4 4 4 4 4 4 4 4 3 3 2 1 1 1 0 0 -0 -1 -1 -2 -4 -4 -4 -5 -5 -5
Height
1262 1275 1288 1300 1314 1327 1338 1342 1340 1343 1347 1361 1368 1365 1358 1370 1376 1374 1379 1374 1374 1371 1364 1374 1375 1382 1378 1378 1385 1398 1398 1407 1415 1413 1414 1418 1420 1426 1430 1444 1444 1440 1444 1444
1253 1267 1279 1292 1307 1318 1328 1334 1334 1339 1339 1345 1356 1359 1366 1368 1370 1370 1379 1377 1372 1369 1368 1373 1370 1375 1382 1379 1382 1389 1397 1410 1425 1421 1417 1417 1417 1415 1420 1427 1438 1440 1450 1447
1244 1257 1270 1286 1298 1312 1322 1330 1330 1328 1330 1338 1345 1355 1362 1370 1369 1370 1376 1373 1373 1378 1378 1376 1373 1387 1390 1389 1387 1396 1400 1404 1405 1407 1407 1411 1423 1419 1417 1421 1433 1435 1434 1437
1237 1250 1262 1277 1290 1304 1315 1319 1320 1313 1314 1334 1339 1348 1349 1359 1363 1368 1373 1374 1374 1379 1383 1382 1381 1384 1398 1398 1401 1402 1406 1415 1408 1404 1398 1407 1415 1412 1414 1412 1414 1429 1431 1431
1229 1243 1257 1269 1282 1297 1306 1309 1317 1313 1313 1327 1338 1345 1340 1347 1354 1356 1362 1366 1371 1377 1382 1378 1384 1390 1396 1397 1406 1406 1414 1427 1422 1419 1409 1408 1421 1411 1405 1406 1407 1407 1417 1425
1224 1238 1251 1264 1276 1289 1296 1304 1310 1312 1309 1318 1330 1331 1331 1335 1349 1352 1357 1363 1369 1376 1384 1387 1393 1392 1400 1400 1408 1414 1424 1431 1433 1427 1420 1419 1424 1412 1408 1402 1400 1404 1415 1419
1222 1235 1247 1260 1271 1279 1287 1295 1307 1310 1304 1308 1314 1323 1332 1335 1339 1348 1356 1362 1370 1381 1385 1392 1395 1399 1404 1407 1411 1417 1426 1430 1432 1428 1437 1433 1400 1398 1400 1405 1403 1404 1409 1417
1222 1234 1245 1256 1268 1279 1286 1293 1304 1305 1304 1304 1315 1319 1324 1336 1343 1351 1357 1364 1370 1380 1386 1400 1403 1410 1412 1414 1415 1417 1420 1424 1426 1427 1428 1406 1397 1403 1405 1407 1407 1408 1411 1415
1224 1234 1244 1254 1265 1275 1285 1292 1297 1305 1304 1304 1305 1312 1320 1332 1343 1357 1363 1368 1372 1379 1388 1395 1391 1397 1399 1410 1411 1414 1414 1416 1415 1427 1420 1415 1393 1390 1401 1404 1412 1408 1410 1418
1225 1234 1244 1255 1264 1272 1283 1291 1295 1300 1302 1304 1308 1312 1320 1329 1340 1350 1361 1368 1374 1377 1382 1385 1387 1385 1384 1395 1399 1406 1410 1413 1413 1417 1415 1403 1393 1399 1405 1417 1413 1409 1415 1423
1228 1236 1245 1254 1262 1269 1279 1286 1290 1296 1300 1304 1307 1310 1315 1324 1329 1339 1357 1367 1373 1378 1377 1378 1384 1383 1382 1383 1382 1390 1394 1403 1407 1413 1415 1411 1396 1404 1409 1410 1414 1418 1423 1430
1231 1238 1245 1252 1260 1268 1276 1282 1288 1295 1298 1308 1309 1310 1313 1317 1323 1330 1347 1349 1357 1365 1370 1375 1380 1383 1381 1376 1382 1382 1393 1387 1393 1394 1391 1392 1393 1400 1407 1412 1416 1423 1427 1431
1233 1240 1246 1253 1259 1264 1272 1276 1283 1289 1298 1310 1312 1312 1315 1318 1323 1329 1339 1349 1355 1359 1362 1369 1377 1379 1373 1378 1377 1375 1380 1383 1388 1390 1388 1388 1392 1399 1406 1413 1419 1423 1427 1431
1234 1240 1246 1252 1254 1259 1265 1272 1280 1284 1296 1306 1317 1316 1319 1322 1324 1331 1334 1340 1351 1358 1362 1367 1370 1374 1371 1375 1369 1370 1375 1378 1382 1386 1388 1391 1395 1400 1406 1413 1418 1422 1425 1429
1234 1239 1245 1251 1250 1257 1261 1270 1275 1281 1290 1302 1314 1318 1322 1323 1329 1333 1336 1344 1350 1354 1362 1367 1370 1369 1369 1367 1366 1367 1369 1375 1380 1384 1386 1390 1395 1400 1406 1411 1416 1421 1424 1426
1235 1240 1244 1250 1254 1259 1262 1270 1276 1281 1283 1295 1313 1323 1327 1332 1334 1337 1342 1345 1349 1355 1359 1365 1364 1366 1369 1370 1369 1365 1366 1373 1378 1382 1384 1389 1394 1399 1404 1410 1414 1418 1422 1423
1241 1243 1247 1250 1252 1254 1258 1265 1274 1279 1284 1295 1314 1326 1330 1334 1337 1339 1344 1349 1351 1357 1359 1359 1361 1367 1368 1368 1367 1363 1366 1372 1377 1381 1384 1389 1393 1399 1405 1409 1414 1416 1420 1421
1253 1255 1255 1255 1259 1263 1269 1275 1280 1284 1289 1296 1311 1327 1335 1336 1339 1341 1345 1347 1355 1360 1358 1357 1359 1367 1366 1368 1366 1364 1365 1371 1377 1380 1384 1389 1395 1399 1404 1407 1412 1415 1417 1419
1264 1264 1267 1270 1273 1275 1279 1281 1285 1290 1293 1297 1307 1313 1325 1334 1338 1341 1347 1349 1355 1358 1357 1357 1358 1362 1364 1363 1361 1362 1363 1371 1378 1381 1383 1388 1396 1400 1403 1406 1410 1412 1414 1415
1270 1273 1275 1279 1279 1279 1281 1285 1287 1290 1290 1294 1299 1306 1317 1327 1332 1340 1346 1347 1353 1357 1357 1355 1356 1355 1356 1356 1356 1360 1366 1370 1375 1378 1383 1388 1394 1398 1401 1404 1409 1409 1410 1412
1269 1270 1276 1278 1277 1278 1281 1286 1289 1294 1296 1300 1306 1311 1317 1329 1332 1337 1342 1346 1348 1349 1351 1355 1352 1352 1351 1352 1354 1361 1366 1369 1373 1378 1383 1387 1392 1396 1399 1401 1405 1406 1405 1405
1272 1273 1277 1278 1280 1282 1287 1292 1291 1290 1298 1302 1308 1315 1321 1326 1332 1338 1343 1345 1347 1348 1351 1356 1352 1344 1343 1348 1353 1359 1364 1367 1372 1376 1381 1385 1389 1393 1395 1398 1401 1402 1402 1403
1279 1280 1284 1286 1291 1289 1289 1295 1290 1295 1301 1308 1314 1320 1327 1332 1336 1341 1344 1348 1346 1346 1351 1347 1340 1340 1343 1347 1352 1357 1362 1367 1371 1375 1380 1384 1387 1390 1393 1395 1398 1399 1398 1398
1285 1288 1293 1293 1295 1290 1289 1284 1293 1299 1304 1310 1317 1323 1328 1334 1336 1339 1341 1341 1341 1345 1344 1339 1338 1339 1342 1347 1352 1357 1362 1367 1371 1375 1379 1383 1386 1389 1391 1392 1393 1393 1393 1393
1289 1293 1296 1298 1299 1300 1299 1298 1299 1305 1310 1316 1322 1326 1330 1333 1338 1335 1340 1345 1342 1339 1335 1336 1338 1342 1346 1351 1356 1359 1363 1367 1372 1375 1378 1380 1382 1384 1386 1387 1387 1387 1387 1385
1297 1297 1298 1301 1302 1303 1302 1302 1305 1310 1314 1318 1320 1325 1332 1335 1334 1337 1338 1338 1335 1333 1336 1340 1340 1345 1349 1354 1358 1361 1364 1367 1371 1373 1375 1377 1378 1379 1379 1380 1380 1380 1379 1378
1299 1302 1301 1302 1305 1307 1307 1308 1310 1312 1315 1316 1319 1326 1326 1328 1330 1331 1329 1330 1331 1335 1338 1341 1343 1347 1351 1355 1358 1361 1364 1367 1369 1372 1373 1373 1374 1373 1374 1374 1374 1374 1373 1372
Wind_Speed
52 50 48 46 43 37 34 33 5 33 65 11 12 17 19 25 21 21 11 6 22 23 24 25 22 23 16 29 22 30 20 7 10 21 15 19 19 18 18 9 10 11 6 3
52 50 48 47 46 43 38 13 8 40 63 12 16 11 17 16 18 15 15 15 11 10 5 13 21 22 7 19 16 19 13 6 6 12 13 9 15 16 17 14 3 12 7 4
52 50 49 49 48 46 38 11 2 14 39 26 21 19 20 16 20 14 13 9 1 4 9 6 6 6 4 4 5 10 2 7 11 10 11 11 19 21 19 19 12 12 15 9
52 52 50 51 49 48 38 16 4 7 15 14 21 24 21 27 12 19 24 14 13 12 8 5 11 5 5 1 7 2 1 6 13 18 16 8 10 14 24 24 19 15 14 19
51 56 50 51 51 50 37 12 5 4 16 25 18 24 15 32 22 20 24 17 18 14 7 7 7 7 5 4 4 2 5 1 6 12 17 18 14 20 19 24 22 20 18 17
52 56 52 53 52 54 25 16 23 7 15 19 17 19 28 28 26 20 23 18 11 11 2 13 13 14 12 5 7 3 4 4 3 5 13 10 13 18 19 19 20 17 18 12
57 52 51 53 52 56 31 27 19 6 6 18 22 27 26 23 27 19 15 8 11 15 23 21 18 24 14 7 6 10 7 7 4 1 5 7 4 2 17 19 16 14 13 10
48 48 49 50 52 56 34 29 28 7 2 19 24 28 25 23 23 9 5 5 11 31 12 4 4 3 2 1 5 13 11 5 4 5 8 7 7 5 7 11 16 18 17 15
42 45 45 47 47 51 45 27 25 13 4 11 29 20 19 12 6 4 3 8 34 18 3 3 6 6 6 6 6 12 13 9 4 4 5 10 1 5 12 2 10 10 8 5
39 40 41 43 43 47 49 38 24 12 4 3 22 13 12 13 6 5 5 12 4 6 3 3 4 5 9 10 14 8 6 4 8 7 5 6 4 14 16 7 0 10 10 10
34 35 37 38 39 42 42 35 36 15 5 5 11 13 14 15 14 7 11 8 1 2 4 4 3 4 7 6 12 10 9 8 5 4 6 9 18 17 9 9 14 14 13 10
30 32 35 34 35 39 42 30 37 22 9 7 15 16 18 19 19 21 25 4 7 8 3 2 3 3 5 8 7 14 6 5 6 8 5 2 24 13 13 15 16 11 10 8
28 28 31 31 40 35 47 37 40 20 11 11 9 12 17 18 15 27 11 7 8 6 6 4 2 3 4 6 5 11 8 15 3 6 8 11 19 19 20 13 10 10 8 7
26 29 30 31 26 45 46 39 35 25 13 4 4 15 18 17 18 23 22 21 15 17 12 3 2 3 3 5 4 7 5 9 10 7 6 11 13 18 18 13 10 8 7 7
20 25 28 28 37 39 37 40 29 28 7 4 8 20 18 21 18 21 25 30 25 12 4 2 2 4 2 1 1 7 10 9 8 5 10 8 15 21 17 13 15 9 9 8
27 31 32 35 35 35 41 9 19 19 35 12 4 8 10 15 21 28 26 25 17 6 5 2 3 3 1 2 4 7 14 14 15 8 13 18 12 14 12 12 10 11 10 8
31 37 41 36 22 22 7 9 25 24 15 9 5 3 4 15 19 16 19 15 11 6 3 2 5 5 4 2 4 6 10 13 15 9 5 12 13 15 13 11 11 10 10 9
29 31 30 20 28 35 28 29 24 21 13 8 5 4 4 12 13 8 12 9 6 1 2 3 5 4 3 3 7 7 8 9 6 12 12 10 11 12 13 14 13 13 12 11
25 23 20 13 17 12 22 25 22 9 6 4 3 7 5 10 11 14 5 4 2 2 1 3 6 4 4 6 8 7 7 11 10 12 14 13 13 14 15 15 14 15 13 11
10 8 4 5 9 14 9 6 3 4 8 7 7 14 8 16 11 3 3 3 3 3 4 7 1 4 9 7 7 7 7 8 13 11 15 16 17 16 14 15 16 15 14 12
4 6 5 6 10 6 4 4 2 3 2 8 14 19 12 16 7 5 4 3 2 3 3 4 3 3 8 15 13 10 11 13 14 15 15 16 16 15 15 16 16 15 15 15
8 13 9 7 5 6 5 3 1 3 3 10 12 15 14 9 8 3 3 3 1 2 6 3 3 2 8 13 15 18 15 15 15 15 15 15 13 17 17 16 16 16 16 18
10 6 5 5 5 4 2 2 2 4 4 9 11 7 5 5 5 3 2 3 3 10 4 3 1 7 11 13 11 16 17 16 15 14 14 12 10 11 17 19 18 18 20 21
5 3 4 3 2 3 5 5 8 7 16 21 18 6 3 3 2 3 3 2 4 4 3 4 4 10 12 10 11 16 19 17 16 14 14 13 13 14 15 18 18 19 21 24
4 4 3 2 5 8 7 13 16 23 26 22 12 7 6 3 2 1 4 2 3 4 3 3 5 12 16 14 12 15 16 17 16 14 13 11 11 13 16 17 19 22 26 28
4 3 5 10 7 3 6 16 17 22 21 19 7 4 3 2 4 3 4 5 4 4 3 8 10 16 17 16 12 15 14 13 12 10 13 14 15 17 20 22 24 25 25 25
3 1 9 8 9 8 9 13 13 17 15 3 3 3 2 5 3 5 4 3 2 8 11 9 12 13 14 15 13 9 8 9 9 11 13 15 19 20 18 16 14 13 14 15
Wind_Direction
216 216 214 213 207 200 194 201 205 180 173 165 187 200 194 208 210 236 240 255 235 225 203 194 202 220 198 189 185 207 209 232 216 210 200 218 223 216 225 223 210 220 232 139
210 210 210 208 202 196 185 194 194 177 174 174 193 177 205 208 212 191 226 220 229 271 253 204 215 208 353 193 194 195 182 211 197 193 215 210 232 230 214 231 151 225 208 164
209 206 205 206 200 193 186 175 180 170 193 187 182 181 191 202 224 200 215 223 320 242 239 257 241 122 20 329 127 79 124 207 216 216 210 194 218 231 231 215 227 215 224 191
206 204 202 203 199 191 183 188 227 201 183 179 188 196 177 187 175 216 212 207 203 200 216 224 232 106 122 306 51 51 49 242 237 247 249 220 284 247 226 239 223 219 226 230
204 201 200 200 196 190 187 155 188 232 170 171 176 195 191 190 198 178 215 214 195 199 208 198 184 99 167 147 118 183 50 21 306 269 263 263 251 249 247 227 242 242 244 237
198 198 196 196 194 188 193 179 204 224 169 171 177 190 201 202 191 220 211 212 177 201 170 75 70 83 85 84 139 96 112 148 172 238 237 254 267 237 250 249 224 241 238 246
191 194 194 195 193 192 190 198 182 223 190 181 189 193 200 196 202 197 207 185 198 138 128 96 75 58 62 84 125 161 170 162 163 173 100 221 237 57 227 241 242 245 252 253
187 191 192 194 193 191 184 193 194 207 195 190 196 199 195 204 199 185 140 125 167 147 100 89 91 53 78 118 204 200 185 150 156 182 211 323 246 171 194 211 238 240 249 242
188 190 193 192 194 194 189 178 186 177 151 203 198 194 195 184 154 93 73 130 151 149 105 143 174 178 158 182 167 209 201 187 221 172 194 214 209 221 183 169 252 245 199 138
186 189 190 191 193 195 196 204 194 193 111 52 192 187 182 133 130 106 127 142 116 109 135 164 174 177 178 172 176 172 173 178 193 179 222 258 125 117 123 162 4 162 163 139
183 185 185 189 193 192 191 201 217 196 119 110 163 168 148 144 149 142 151 99 168 138 172 173 168 170 186 174 173 174 168 160 176 185 198 231 152 137 166 114 103 104 115 127
177 181 183 187 186 190 191 190 204 201 150 131 137 156 172 180 167 149 165 107 139 159 142 154 135 180 176 169 180 181 186 177 164 189 198 99 163 147 141 145 138 144 155 157
179 186 189 191 197 207 196 184 193 180 103 81 104 120 152 161 168 181 137 160 150 167 136 120 136 156 209 176 204 170 198 197 205 191 205 180 163 153 145 147 155 159 160 172
190 193 193 190 197 182 185 182 170 152 115 92 80 133 135 148 160 171 173 154 133 130 117 98 138 132 163 204 172 185 169 182 176 199 179 150 177 147 152 159 164 159 164 174
185 197 194 198 190 186 168 165 156 164 126 128 109 104 126 140 140 144 131 140 134 114 100 107 120 163 187 232 280 190 179 190 176 204 180 176 182 174 183 179 167 185 188 182
169 181 186 190 182 167 153 115 129 133 133 113 94 78 115 134 133 136 136 131 123 113 120 159 98 57 35 166 202 205 194 170 197 217 189 189 187 190 167 165 192 178 189 192
120 126 131 130 128 154 110 143 137 130 98 96 107 95 98 138 131 134 142 144 139 133 138 161 139 144 112 172 202 163 191 192 195 206 204 168 175 164 163 180 178 180 188 196
86 86 85 83 109 102 100 110 119 112 100 87 106 106 120 151 131 116 130 107 112 95 132 134 115 130 172 216 222 219 187 195 216 206 204 174 181 177 199 180 186 197 204 208
111 98 105 76 88 79 107 98 95 109 116 119 135 140 128 168 133 115 104 118 94 122 162 178 150 150 204 205 209 188 212 175 202 214 197 169 196 200 191 183 198 208 216 220
103 133 106 90 127 121 132 106 97 51 31 82 114 111 124 136 148 102 116 139 135 158 200 113 151 237 224 191 188 188 183 191 187 190 176 180 191 206 193 203 212 217 222 228
37 51 75 113 57 60 54 59 70 107 96 113 124 130 128 144 120 129 121 136 143 181 148 153 201 237 216 212 192 188 183 189 188 192 192 203 204 201 202 215 218 221 229 237
86 112 83 38 37 40 65 43 1 125 94 121 125 120 99 76 89 93 96 95 199 154 133 150 235 208 165 181 200 191 186 182 183 184 194 201 194 203 209 218 229 235 239 242
85 60 46 10 3 45 57 76 85 111 100 123 123 106 111 88 82 77 97 144 179 135 165 209 236 157 178 172 181 183 181 181 184 178 185 186 196 208 222 224 232 245 251 250
57 64 52 16 41 36 3 116 105 115 128 122 115 80 84 117 91 135 125 147 134 183 207 212 174 174 159 159 170 180 177 178 181 183 188 200 212 223 232 246 262 267 265 263
53 45 63 71 80 72 77 116 123 126 123 121 110 89 80 78 99 157 96 119 192 217 223 114 149 169 143 143 154 164 164 170 179 191 198 203 221 234 244 255 264 269 273 278
53 44 107 97 113 105 103 116 114 127 134 154 123 112 123 124 135 136 176 180 214 177 119 150 155 148 145 148 152 149 162 173 184 206 228 244 257 267 274 275 275 275 276 277
71 86 121 129 114 129 126 129 136 147 161 129 107 107 150 135 178 189 188 208 95 128 127 141 137 138 138 151 161 156 167 194 223 245 262 277 289 291 288 289 294 293 295 297